Date String (YYYY-MM-DD hh:mm:ss) UTC,Instrument flags,Ambient pressure (hPa),Sample flow (lpm),Bypass flow (lpm),Sample temperature (°C),Ambient temperature (°C),ASC tube jacket temperature (°C),LED temperature (°C),Box temperature (°C),Sample RH (%),Span deviation,Mass concentration (μg/m³),Mass concentration (μg/m³),Mass concentration (μg/m³)
DateTimeUTC,F1_M11,P_M11,Q1_M11,Q2_M11,T1_M11,T2_M11,T3_M11,T4_M11,T5_M11,U1_M11,ZSPAN_M11,X0_M11,X2_M11,X1_M11
2021-11-18 10:00:00,,0834.3,5.00,0.00,22.1,21.5,00.0,31.3,23.8,08.7,0000.0,0015.16,0004.18,0003.17
2021-11-18 10:01:00,,0834.3,5.00,0.00,22.1,21.4,00.0,31.3,23.7,08.7,0000.0,0015.22,0004.21,0003.18
2021-11-18 10:02:00,,0834.3,5.00,0.00,22.1,21.3,00.0,31.3,23.7,08.8,0000.0,0015.36,0004.23,0003.19
2021-11-18 10:03:00,,0834.3,5.01,0.00,22.1,21.9,00.0,31.3,23.8,08.8,0000.0,0015.23,0004.19,0003.20
2021-11-18 10:04:00,,0834.3,4.99,0.00,22.2,22.7,00.0,31.3,24.0,08.7,0000.0,0015.10,0004.25,0003.21
2021-11-18 10:05:00,,0834.3,5.01,0.00,22.3,23.1,00.0,31.3,24.2,08.7,0000.0,0014.33,0004.28,0003.22
2021-11-18 10:06:00,,0834.3,5.00,0.00,22.4,22.9,00.0,31.3,24.3,08.6,0000.0,0014.73,0004.30,0003.22
2021-11-18 10:07:00,,0834.3,5.00,0.00,22.4,22.6,00.0,31.3,24.2,08.6,0000.0,0014.65,0004.29,0003.22
2021-11-18 10:08:00,,0834.3,5.01,0.00,22.4,22.3,00.0,31.3,24.1,08.5,0000.0,0013.40,0004.21,0003.21
2021-11-18 10:09:00,,0834.2,4.99,0.00,22.3,22.1,00.0,31.3,24.0,08.4,0000.0,0012.96,0004.14,0003.18
2021-11-18 10:10:00,,0834.1,5.00,0.00,22.3,21.9,00.0,31.3,23.9,08.4,0000.0,0012.04,0004.09,0003.15
2021-11-18 10:11:00,,0834.1,4.99,0.00,22.2,21.7,00.0,31.3,23.9,08.4,0000.0,0011.81,0004.04,0003.13
2021-11-18 10:12:00,,0834.1,4.99,0.00,22.2,21.6,00.0,31.3,23.8,08.5,0000.0,0011.31,0003.99,0003.08
2021-11-18 10:13:00,,0834.0,5.00,0.00,22.1,21.5,00.0,31.3,23.8,08.5,0000.0,0011.05,0003.93,0003.05
2021-11-18 10:14:00,,0834.1,5.01,0.00,22.1,21.4,00.0,31.3,23.7,08.5,0000.0,0011.32,0003.88,0002.97
2021-11-18 10:15:00,,0834.0,5.00,0.00,22.1,21.3,00.0,31.2,23.7,08.5,0000.0,0011.01,0003.79,0002.91
2021-11-18 10:16:00,,0834.1,5.00,0.00,22.1,21.5,00.0,31.2,23.7,08.5,0000.0,0010.96,0003.74,0002.86
2021-11-18 10:17:00,,0834.0,4.99,0.00,22.2,22.3,00.0,31.3,23.9,08.4,0000.0,0010.26,0003.71,0002.81
2021-11-18 10:18:00,,0834.0,5.01,0.00,22.3,23.0,00.0,31.3,24.2,08.3,0000.0,0009.64,0003.65,0002.76
2021-11-18 10:19:00,,0834.0,5.00,0.00,22.4,23.3,00.0,31.3,24.3,08.2,0000.0,0010.32,0003.65,0002.71
2021-11-18 10:20:00,,0834.0,4.99,0.00,22.5,23.1,00.0,31.3,24.4,08.2,0000.0,0010.73,0003.65,0002.67
2021-11-18 10:21:00,,0833.9,5.00,0.00,22.4,22.7,00.0,31.4,24.3,08.2,0000.0,0010.66,0003.62,0002.64
2021-11-18 10:22:00,,0833.9,5.01,0.00,22.4,22.5,00.0,31.4,24.2,08.2,0000.0,0010.36,0003.60,0002.61
2021-11-18 10:23:00,,0833.9,4.99,0.00,22.4,22.2,00.0,31.4,24.1,08.2,0000.0,0010.23,0003.59,0002.59
2021-11-18 10:24:00,,0833.9,5.00,0.00,22.3,22.0,00.0,31.4,24.0,08.2,0000.0,0010.45,0003.56,0002.57
2021-11-18 10:25:00,,0833.9,5.01,0.00,22.3,21.9,00.0,31.4,24.0,08.2,0000.0,0010.52,0003.52,0002.55
2021-11-18 10:26:00,,0833.9,5.00,0.00,22.3,21.7,00.0,31.3,23.9,08.2,0000.0,0011.03,0003.53,0002.51
2021-11-18 10:27:00,,0833.9,4.99,0.00,22.2,21.6,00.0,31.3,23.8,08.2,0000.0,0011.18,0003.52,0002.47
2021-11-18 10:28:00,,0833.9,5.01,0.00,22.2,21.5,00.0,31.3,23.8,08.2,0000.0,0011.09,0003.46,0002.45
2021-11-18 10:29:00,,0833.9,4.99,0.00,22.1,21.4,00.0,31.3,23.8,08.2,0000.0,0011.26,0003.48,0002.44
2021-11-18 10:30:00,,0833.8,5.00,0.00,22.1,21.4,00.0,31.3,23.7,08.2,0000.0,0010.77,0003.47,0002.44
2021-11-18 10:31:00,,0833.9,5.00,0.00,22.1,21.4,00.0,31.3,23.7,08.2,0000.0,0010.32,0003.46,0002.43
2021-11-18 10:32:00,,0833.8,4.98,0.00,22.1,22.0,00.0,31.3,23.9,08.2,0000.0,0010.25,0003.46,0002.44
2021-11-18 10:33:00,,0833.9,5.01,0.00,22.3,22.8,00.0,31.3,24.1,08.2,0000.0,0010.25,0003.45,0002.44
2021-11-18 10:34:00,,0833.9,5.00,0.00,22.4,23.4,00.0,31.3,24.3,08.1,0000.0,0011.00,0003.47,0002.44
2021-11-18 10:35:00,,0833.8,4.99,0.00,22.5,23.3,00.0,31.4,24.4,08.1,0000.0,0010.97,0003.46,0002.44
2021-11-18 10:36:00,,0833.8,5.02,0.00,22.5,23.0,00.0,31.4,24.3,08.1,0000.0,0010.74,0003.46,0002.45
2021-11-18 10:37:00,,0833.8,4.99,0.00,22.4,22.7,00.0,31.4,24.2,08.1,0000.0,0010.69,0003.46,0002.47
2021-11-18 10:38:00,,0833.8,5.00,0.00,22.4,22.4,00.0,31.4,24.1,08.2,0000.0,0010.47,0003.47,0002.47
2021-11-18 10:39:00,,0833.8,5.00,0.00,22.4,22.2,00.0,31.4,24.1,08.2,0000.0,0010.16,0003.50,0002.47
2021-11-18 10:40:00,,0833.7,5.01,0.00,22.3,22.0,00.0,31.4,24.0,08.2,0000.0,0010.37,0003.48,0002.46
2021-11-18 10:41:00,,0833.8,5.00,0.00,22.3,21.8,00.0,31.4,23.9,08.2,0000.0,0010.16,0003.51,0002.46
2021-11-18 10:42:00,,0833.8,4.99,0.00,22.3,21.7,00.0,31.4,23.9,08.2,0000.0,0010.27,0003.57,0002.48
2021-11-18 10:43:00,,0833.8,5.01,0.00,22.2,21.6,00.0,31.4,23.9,08.1,0000.0,0010.25,0003.56,0002.47
2021-11-18 10:44:00,,0833.8,5.00,0.00,22.2,21.5,00.0,31.3,23.8,08.1,0000.0,0010.36,0003.58,0002.46
2021-11-18 10:45:00,,0833.8,4.99,0.00,22.1,21.4,00.0,31.3,23.7,08.1,0000.0,0009.95,0003.61,0002.46
2021-11-18 10:46:00,,0833.8,5.00,0.00,22.1,21.3,00.0,31.3,23.7,08.1,0000.0,0009.96,0003.65,0002.45
2021-11-18 10:47:00,,0833.8,5.01,0.00,22.1,21.3,00.0,31.3,23.7,08.1,0000.0,0009.73,0003.65,0002.45
2021-11-18 10:48:00,,0833.8,4.99,0.00,22.1,22.0,00.0,31.3,23.8,08.1,0000.0,0009.19,0003.62,0002.44
2021-11-18 10:49:00,,0833.8,5.00,0.00,22.2,22.7,00.0,31.3,24.1,08.0,0000.0,0009.11,0003.61,0002.45
2021-11-18 10:50:00,,0833.9,5.00,0.00,22.4,23.4,00.0,31.4,24.3,08.0,0000.0,0008.98,0003.60,0002.45
2021-11-18 10:51:00,,0833.9,4.99,0.00,22.5,23.2,00.0,31.4,24.4,07.9,0000.0,0008.44,0003.60,0002.45
2021-11-18 10:52:00,,0833.9,4.99,0.00,22.5,22.9,00.0,31.4,24.3,07.9,0000.0,0008.41,0003.56,0002.43
2021-11-18 10:53:00,,0833.9,5.00,0.00,22.4,22.6,00.0,31.4,24.2,07.9,0000.0,0008.24,0003.48,0002.42
2021-11-18 10:54:00,,0833.9,5.01,0.00,22.4,22.3,00.0,31.4,24.1,07.9,0000.0,0008.31,0003.50,0002.41
2021-11-18 10:55:00,,0833.8,5.00,0.00,22.4,22.1,00.0,31.4,24.0,07.9,0000.0,0008.49,0003.50,0002.41
2021-11-18 10:56:00,,0833.8,4.99,0.00,22.3,21.9,00.0,31.4,24.0,08.0,0000.0,0008.50,0003.49,0002.43
2021-11-18 10:57:00,,0833.8,5.01,0.00,22.3,21.8,00.0,31.4,23.9,08.0,0000.0,0008.45,0003.45,0002.44
2021-11-18 10:58:00,,0833.8,4.99,0.00,22.2,21.6,00.0,31.3,23.9,08.0,0000.0,0008.86,0003.50,0002.44
2021-11-18 10:59:00,,0833.8,5.02,0.00,22.2,21.5,00.0,31.3,23.8,08.0,0000.0,0008.74,0003.54,0002.45
